{"data":{"norad_id":57128,"epoch":"2026-09-20T11:05:10.104000Z","epoch_age_seconds":124210,"freshness":"FRESH","line1":"1 57128U 23090AD  26263.46192250 -.00000625  00000+0 -13179-4 0  9994","line2":"2 57128  43.0024 261.2859 0001354 251.9299 108.1405 15.27569299179934","mean_motion":15.27569299,"eccentricity":0.0001354,"inclination_deg":43.0024,"raan_deg":261.2859,"arg_perigee_deg":251.9299,"mean_anomaly_deg":108.1405,"bstar":-1.3179e-5,"rev_number":17993,"period_min":94.267409075495,"perigee_km":482.15212993437,"apogee_km":484.01014780638,"semimajor_km":6861.2181388704,"source":"CELESTRAK","updated_at":"2026-09-21T09:00:33.563616Z"}}